N2UGS-WX Weather Reports


Display with metric or nautical units.
time (UTC)temp
F
wind
direction
speed
MPH
gust
MPH
rain 1hr
in
rain 24hr
in
rain mn
in
humidity
%
barometer
mb
20260508035003 39 256 0.0 0.0 0.00 0.00 0.05 94 1012.5
20260508033502 39 298 0.0 0.0 0.00 0.00 0.05 93 1012.5
20260508032503 39 175 0.0 0.0 0.00 0.00 0.05 93 1012.5
20260508031002 40 274 0.0 0.0 0.00 0.00 0.05 92 1012.5
20260508025501 41 250 0.0 0.0 0.01 0.00 0.05 91 1012.5
20260508023901 42 297 0.0 0.0 0.02 0.00 0.05 91 1012.2
20260508022401 42 258 0.0 3.0 0.02 0.00 0.05 91 1012.2
20260508020902 42 323 3.0 9.0 0.04 0.00 0.05 91 1012.2
20260508015401 43 31 4.0 8.0 0.04 0.00 0.04 91 1012.5
20260508013902 43 241 4.0 4.0 0.03 0.00 0.03 90 1012.5
20260508012402 43 279 2.0 6.0 0.03 0.00 0.03 88 1012.2
20260508010902 44 318 3.0 10.0 0.00 0.00 0.00 85 1012.2
20260508005901 45 321 3.0 13.0 0.00 0.00 0.00 80 1011.9
20260508004401 45 284 1.0 2.0 0.00 0.00 0.00 78 1011.5
20260508003002 45 312 0.0 2.0 0.00 0.00 0.00 78 1011.5
20260508002001 45 313 1.0 3.0 0.00 0.00 0.00 78 1011.5
20260508000901 45 345 3.0 6.0 0.00 0.00 0.00 75 1011.5
20260507235401 46 302 7.0 14.0 0.00 0.00 0.00 72 1011.5
20260507233902 49 297 11.0 11.0 0.00 0.00 0.00 63 1010.8
20260507232402 50 251 2.0 10.0 0.00 0.00 0.00 54 1010.8
20260507231002 51 263 1.0 7.0 0.00 0.00 0.00 59 1010.8
20260507225902 52 241 3.0 3.0 0.00 0.00 0.00 58 1010.5
20260507224502 52 292 0.0 5.0 0.00 0.00 0.00 53 1010.8
20260507223402 54 34 2.0 6.0 0.00 0.00 0.00 52 1010.5
20260507222002 56 300 6.0 6.0 0.00 0.00 0.00 48 1010.8
20260507220502 54 269 4.0 6.0 0.00 0.00 0.00 54 1010.8
20260507214902 54 316 2.0 7.0 0.00 0.00 0.00 51 1010.8
20260507213501 57 320 7.0 7.0 0.00 0.00 0.00 48 1010.8
20260507210902 52 332 2.0 4.0 0.00 0.00 0.00 57 1010.8
20260507205502 51 36 4.0 6.0 0.00 0.00 0.00 57 1010.8
20260507203902 51 13 3.0 7.0 0.00 0.00 0.00 58 1010.8
20260507202502 51 337 6.0 10.0 0.00 0.00 0.00 58 1010.8
20260507201402 51 279 7.0 10.0 0.00 0.00 0.00 57 1010.8
20260507195902 53 312 4.0 10.0 0.00 0.00 0.00 53 1011.2
20260507194902 55 46 5.0 10.0 0.00 0.00 0.00 48 1011.2
20260507193501 57 45 3.0 6.0 0.00 0.00 0.00 47 1011.2
20260507192001 57 354 4.0 6.0 0.00 0.00 0.00 47 1011.2
20260507190902 54 37 7.0 7.0 0.00 0.00 0.00 50 1011.5
20260507185502 51 298 4.0 11.0 0.00 0.00 0.00 55 1011.9
20260507184502 50 12 5.0 10.0 0.00 0.00 0.00 57 1011.9
20260507183001 50 35 9.0 9.0 0.00 0.00 0.00 59 1011.5
20260507181502 52 2 7.0 8.0 0.00 0.00 0.00 54 1011.5
20260507175902 52 343 4.0 6.0 0.00 0.00 0.00 52 1011.5
20260507174501 54 54 3.0 7.0 0.00 0.00 0.00 49 1011.5
20260507173402 57 1 3.0 8.0 0.00 0.00 0.00 43 1011.5
20260507172003 57 355 7.0 15.0 0.00 0.00 0.00 44 1011.5
20260507170502 58 254 5.0 7.0 0.00 0.00 0.00 42 1011.5
20260507165002 59 304 2.0 7.0 0.00 0.00 0.00 41 1011.9
20260507163501 59 54 2.0 6.0 0.00 0.00 0.00 45 1011.9
20260507162002 57 205 5.0 9.0 0.00 0.00 0.00 42 1012.2
20260507160503 57 265 3.0 4.0 0.00 0.00 0.00 46 1012.2
20260507155501 55 341 4.0 8.0 0.00 0.00 0.00 45 1012.2
20260507154002 56 310 4.0 7.0 0.00 0.00 0.00 46 1012.5
20260507152502 54 245 8.0 8.0 0.00 0.00 0.00 49 1012.5
20260507151002 53 321 7.0 9.0 0.00 0.00 0.00 47 1012.5
20260507145502 53 272 6.0 6.0 0.00 0.00 0.00 53 1012.5
20260507144402 53 267 4.0 7.0 0.00 0.00 0.00 54 1012.9
20260507143402 52 288 0.0 6.0 0.00 0.00 0.00 56 1012.9
20260507141902 53 224 2.0 4.0 0.00 0.00 0.00 57 1012.9
20260507140403 51 186 4.0 6.0 0.00 0.00 0.00 57 1012.9
20260507134903 51 260 2.0 6.0 0.00 0.00 0.00 63 1012.9
20260507133901 49 142 2.0 3.0 0.00 0.00 0.00 67 1013.2
20260507132503 46 138 1.0 3.0 0.00 0.00 0.00 67 1013.2
20260507131402 44 44 1.0 4.0 0.00 0.00 0.00 75 1013.2
20260507130002 41 2 0.0 4.0 0.00 0.00 0.00 90 1013.2
20260507124502 41 57 0.0 2.0 0.00 0.00 0.00 97 1013.5
20260507123002 40 61 0.0 4.0 0.00 0.00 0.00 99 1013.2
20260507121403 41 79 2.0 3.0 0.00 0.00 0.00 99 1013.2
20260507115902 41 51 0.0 1.0 0.00 0.00 0.00 99 1013.5
20260507114402 40 359 0.0 0.0 0.00 0.00 0.00 99 1013.5
20260507112902 40 310 0.0 3.0 0.00 0.00 0.00 99 1013.5
20260507111402 40 337 0.0 0.0 0.00 0.00 0.00 99 1013.2
20260507110402 39 344 0.0 0.0 0.00 0.00 0.00 99 1012.9
20260507104902 38 338 0.0 0.0 0.00 0.00 0.00 99 1012.5
20260507103501 38 340 0.0 0.0 0.00 0.00 0.00 99 1012.9
20260507102403 38 242 0.0 0.0 0.00 0.00 0.00 99 1012.5
20260507101402 38 128 0.0 0.0 0.00 0.00 0.00 99 1012.5
20260507095902 36 292 0.0 0.0 0.00 0.00 0.00 98 1012.5
20260507094502 36 11 0.0 0.0 0.00 0.00 0.00 98 1012.5
20260507093002 36 337 0.0 0.0 0.00 0.00 0.00 98 1012.5
20260507091503 36 293 0.0 0.0 0.00 0.00 0.00 98 1012.5
20260507090003 36 344 0.0 0.0 0.00 0.00 0.00 98 1012.5
20260507084902 37 341 0.0 0.0 0.00 0.00 0.00 97 1012.5
20260507083402 37 303 0.0 0.0 0.00 0.00 0.00 97 1012.5
20260507082401 38 349 0.0 0.0 0.00 0.00 0.00 97 1012.5
20260507080902 38 223 0.0 0.0 0.00 0.00 0.00 97 1012.5
20260507075502 38 279 0.0 0.0 0.00 0.00 0.00 97 1012.5
20260507074402 38 317 0.0 0.0 0.00 0.00 0.00 97 1012.5
20260507073401 38 300 0.0 0.0 0.00 0.00 0.00 97 1012.5
20260507072002 37 276 0.0 0.0 0.00 0.00 0.00 96 1012.5
20260507070502 38 2 0.0 0.0 0.00 0.00 0.00 96 1012.5
20260507065402 39 15 0.0 0.0 0.00 0.00 0.00 96 1012.5
20260507064003 39 281 0.0 0.0 0.00 0.00 0.00 95 1012.9
20260507062502 40 272 0.0 0.0 0.00 0.00 0.00 95 1012.9
20260507060902 40 313 0.0 0.0 0.00 0.00 0.00 95 1012.9
20260507055502 41 230 0.0 0.0 0.00 0.00 0.00 95 1012.9
20260507054002 41 342 0.0 0.0 0.00 0.00 0.00 94 1013.2
20260507052402 42 10 0.0 0.0 0.00 0.00 0.00 94 1013.2
20260507051002 42 285 0.0 0.0 0.00 0.00 0.00 93 1013.5
20260507050002 42 32 0.0 0.0 0.00 0.00 0.00 93 1013.5
20260507044501 42 329 0.0 0.0 0.00 0.00 0.00 93 1013.5
20260507043003 43 292 0.0 0.0 0.00 0.00 0.00 93 1013.5
20260507041502 43 284 0.0 2.0 0.00 0.00 0.00 93 1013.5
20260507040002 43 302 0.0 0.0 0.00 0.00 0.00 93 1013.5